Tracking 19245 objects as of 18-Aug-2018
HD Live streaming from Space Station
objects crossing your sky now

COSMOS 520

Track COSMOS 520 now!
COSMOS 520 is classified as:


NORAD ID: 6192
Int'l Code: 1972-072A
Perigee: 8,170.8 km
Apogee: 32,070.7 km
Inclination: 73.3 °
Period: 715.2 minutes
Semi major axis: 26491 km
RCS: 12.5618 m2 (large)
Launch date: September 19, 1972
Source: Commonwealth of Independent States (former USSR) (CIS)
Launch site: PLESETSK MISSILE AND SPACE COMPLEX (PKMTR)
aabbcc
Your satellite tracking list
Your tracking list is empty




NASA's NSSDC Master Catalog

Two Line Element Set (TLE):
1 06192U 72072A   18229.57090257 -.00000052  00000-0  00000+0 0  9990
2 06192  73.2967 322.0538 4510814 280.3606 130.3120  2.01342871337578
Source of the keplerian elements: AFSPC